Location: Robert Brownlee Observatory
(34.2308°N, 117.2089°W)
Time: 16:34:14
(UTC-07:00)

Cosmos 1943 - Visible Passes

Search period start: 29 April 2016 00:00
Search period end: 09 May 2016 00:00
Orbit: 833 x 851 km, 71.0° (Epoch: 29 April)

Date Brightness Start Highest point End Pass type
(mag) Time Alt. Az. Time Alt. Az. Time Alt. Az.
29 Apr 4.4 03:06:14 32° ESE 03:06:44 33° ESE 03:11:43 10° NE visible
29 Apr 4.2 04:48:04 20° WSW 04:50:44 29° WNW 04:55:35 10° N visible
30 Apr 4.5 02:51:53 31° E 02:51:53 31° E 02:56:42 10° NE visible
30 Apr 4.2 04:33:43 24° W 04:35:44 30° WNW 04:40:42 10° N visible
01 May 4.7 02:37:29 29° E 02:37:29 29° E 02:41:40 10° NE visible
01 May 4.1 04:19:19 28° W 04:20:45 32° WNW 04:25:48 10° N visible
02 May 4.9 02:23:03 26° E 02:23:03 26° E 02:26:39 10° NE visible
02 May 4.0 04:04:52 32° W 04:05:47 34° WNW 04:10:54 10° N visible
03 May 5.0 02:08:33 23° ENE 02:08:33 23° ENE 02:11:37 10° NE visible
03 May 3.9 03:50:23 35° WNW 03:50:49 35° WNW 03:55:59 10° N visible
04 May 5.2 01:54:01 20° ENE 01:54:01 20° ENE 01:56:33 10° NE visible
04 May 3.9 03:35:50 37° WNW 03:35:50 37° WNW 03:41:05 10° N visible
05 May 5.4 01:39:27 18° ENE 01:39:27 18° ENE 01:41:30 10° NE visible
05 May 3.9 03:21:16 39° NW 03:21:16 39° NW 03:26:10 10° N visible
06 May 5.5 01:24:51 16° ENE 01:24:51 16° ENE 01:26:27 10° NE visible
06 May 4.0 03:06:40 40° NW 03:06:40 40° NW 03:11:16 10° N visible
07 May 5.6 01:10:13 14° ENE 01:10:13 14° ENE 01:11:23 10° NE visible
07 May 4.1 02:52:01 39° NW 02:52:01 39° NW 02:56:20 10° N visible
08 May 5.7 00:55:32 13° ENE 00:55:32 13° ENE 00:56:18 10° NE visible
08 May 4.2 02:37:21 39° NNW 02:37:21 39° NNW 02:41:25 10° N visible
